ORBASTRO-JEN1

导读

ORBASTRO-JEN1(NORAD编号69006)是一颗被纳入北美防空司令部(NORAD)空间目标监测目录的人造卫星,该编号是空间物体的唯一识别码,用于轨道跟踪与碰撞预警管理。作为近地轨道空间物体,其轨道参数可通过CelesTrak、Space-Track等公开航天数据库查询,服务于卫星运营商的碰撞规避分析与航天任务轨道规划。当前公开信息中,该卫星的具体任务定位、研制主体与详细技术参数尚未大规模披露,作为登记在册的轨道物体,它是全球空间碎片监测与卫星管理体系的组成部分,助力维护近地空间的运行安全与秩序。

基本信息
目录编号:
69006
目录名称:
ORBASTRO-JEN1
国际标识:
2026-100AC
轨道中心:
EARTH
卫星名称:
ORBASTRO-JEN1
卫星全名:
ORBASTRO-JEN1
卫星状态:
在轨 (已飞行125 天)
发射日期:
2026-05-03 UTC
国别 :
英国 (GB)
星等 :
--
轨道信息
数据来源 国际轨道数据
星历时间: 2026-09-05T14:10:40+0800
7小时前
查看轨道信息
半长轴: 6881.974km
偏心率: 0.0012539
轨道倾角: 97.394°
近地点辐角 82.080°
升交点赤经 144.598°
平近点角 278.185°
近地点: 495.207km
远地点: 512.467km
周期: 94.695分钟
每日圈数: 15.206639
详细信息
使用方式:
暂无
2D轨道图
3D轨道图
轨道高度分析图
轨道倾角分析图
轨道综合分析图
查看轨道综合分析图
交会数据列表
事件ID 空间交会对象 最接近时刻(TCA) 交会距离 交会风险概率(CRP) 交会风险指数(CRI) 操作
CDM_260907-115506-677206-900621
IHI-SAT2 (66772)
2026-09-07T
11:55:43+0000
0.564 km
远距离
1.556384E-4 高风险 0.79
CDM_260907-044706-408806-900621
OBJECT B (64088)
2026-09-07T
04:47:15+0000
0.680 km
远距离
9.426391E-5 中风险 0.74
CDM_260907-002204-003206-900622
QB50P2 (40032)
2026-09-07T
00:22:35+0000
2.003 km
极远距离
2.4966E-6 低风险 0.43
CDM_260907-001706-430306-900621
2026-09-07T
00:17:18+0000
2.254 km
极远距离
1.385047E-6 低风险 0.38